KC5NAM Weather Reports


Display with metric or nautical units.
time (UTC)temp
F
wind
direction
speed
MPH
gust
MPH
rain 1hr
in
rain 24hr
in
rain mn
in
humidity
%
barometer
mb
20260504045533 67 142 4.0 14.0 0.00 0.00 0.00 71 1021.7
20260504045033 68 174 4.0 10.0 0.00 0.00 0.00 71 1021.7
20260504044546 68 135 3.0 10.0 0.00 0.00 0.00 71 1021.7
20260504044034 68 129 3.0 9.0 0.00 0.00 0.00 70 1021.7
20260504043535 68 136 4.0 9.0 0.00 0.00 0.00 70 1021.9
20260504043108 68 104 2.0 13.0 0.00 0.00 0.00 70 1021.8
20260504042534 68 111 3.0 13.0 0.00 0.00 0.00 70 1021.8
20260504042035 68 136 4.0 13.0 0.00 0.00 0.00 69 1021.8
20260504041541 68 153 4.0 9.0 0.00 0.00 0.00 69 1021.8
20260504041034 68 95 3.0 10.0 0.00 0.00 0.00 69 1022.0
20260504040534 68 124 4.0 10.0 0.00 0.00 0.00 68 1022.0
20260504040043 68 150 3.0 9.0 0.00 0.00 0.00 68 1022.0
20260504035534 68 77 3.0 9.0 0.00 0.00 0.00 68 1022.1
20260504035034 69 0 2.0 7.0 0.00 0.00 0.00 67 1022.1
20260504034551 69 126 1.0 8.0 0.00 0.00 0.00 67 1022.1
20260504034034 69 0 3.0 9.0 0.00 0.00 0.00 66 1022.0
20260504033534 69 93 3.0 9.0 0.00 0.00 0.00 65 1022.0
20260504033045 69 167 2.0 10.0 0.00 0.00 0.00 65 1022.0
20260504032538 69 81 2.0 10.0 0.00 0.00 0.00 64 1021.9
20260504032036 69 119 3.0 9.0 0.00 0.00 0.00 64 1021.9
20260504031550 69 144 3.0 9.0 0.00 0.00 0.00 64 1021.9
20260504031034 69 152 3.0 8.0 0.00 0.00 0.00 64 1021.9
20260504030534 70 83 2.0 7.0 0.00 0.00 0.00 63 1021.8
20260504030100 70 165 1.0 7.0 0.00 0.00 0.00 62 1021.8
20260504025534 70 139 0.0 7.0 0.00 0.00 0.00 62 1021.9
20260504025034 70 143 2.0 7.0 0.00 0.00 0.00 61 1021.9
20260504024540 71 0 1.0 7.0 0.00 0.00 0.00 61 1021.9
20260504024034 71 113 1.0 9.0 0.00 0.00 0.00 61 1021.9
20260504023534 71 79 2.0 9.0 0.00 0.00 0.00 61 1021.8
20260504023038 71 165 2.0 7.0 0.00 0.00 0.00 61 1021.9
20260504022536 71 148 1.0 7.0 0.00 0.00 0.00 60 1021.8
20260504022035 71 0 1.0 7.0 0.00 0.00 0.00 60 1021.7
20260504021548 72 98 2.0 8.0 0.00 0.00 0.00 59 1021.6
20260504021036 72 102 1.0 8.0 0.00 0.00 0.00 59 1021.5
20260504020540 72 0 0.0 9.0 0.00 0.00 0.00 59 1021.6
20260504020042 72 136 1.0 9.0 0.00 0.00 0.00 58 1021.6
20260504015537 73 149 3.0 9.0 0.00 0.00 0.00 57 1021.5
20260504015036 73 130 1.0 7.0 0.00 0.00 0.00 57 1021.4
20260504014541 73 0 1.0 6.0 0.00 0.00 0.00 56 1021.3
20260504014036 73 76 1.0 6.0 0.00 0.00 0.00 55 1021.2
20260504013538 73 0 0.0 4.0 0.00 0.00 0.00 54 1021.1
20260504013052 74 0 0.0 4.0 0.00 0.00 0.00 53 1021.2
20260504012536 74 0 0.0 3.0 0.00 0.00 0.00 52 1021.3
20260504012036 74 0 0.0 2.0 0.00 0.00 0.00 50 1021.2
20260504011546 75 0 0.0 3.0 0.00 0.00 0.00 49 1021.1
20260504011039 75 0 0.0 5.0 0.00 0.00 0.00 48 1021.2
20260504010536 75 0 0.0 6.0 0.00 0.00 0.00 47 1021.2
20260504010054 76 86 0.0 6.0 0.00 0.00 0.00 47 1021.1
20260504005536 76 0 0.0 2.0 0.00 0.00 0.00 45 1021.3
20260504005037 76 0 0.0 2.0 0.00 0.00 0.00 45 1021.2
20260504004546 77 82 0.0 5.0 0.00 0.00 0.00 45 1021.0
20260504004038 77 109 0.0 5.0 0.00 0.00 0.00 44 1021.1
20260504003536 77 0 1.0 5.0 0.00 0.00 0.00 43 1021.1
20260504003042 78 0 1.0 5.0 0.00 0.00 0.00 42 1021.1
20260504002536 78 96 2.0 5.0 0.00 0.00 0.00 42 1021.1
20260504002036 78 0 0.0 6.0 0.00 0.00 0.00 42 1021.1
20260504001541 78 80 1.0 9.0 0.00 0.00 0.00 41 1021.2
20260504001036 79 0 2.0 9.0 0.00 0.00 0.00 41 1021.3
20260504000537 79 158 3.0 7.0 0.00 0.00 0.00 40 1021.3
20260504000058 79 165 2.0 7.0 0.00 0.00 0.00 40 1021.4
20260503235536 79 0 2.0 7.0 0.00 0.00 0.00 40 1021.5
20260503235036 80 167 1.0 7.0 0.00 0.00 0.00 40 1021.5
20260503234544 80 134 0.0 7.0 0.00 0.00 0.00 40 1021.8
20260503234041 80 161 1.0 7.0 0.00 0.00 0.00 38 1021.8
20260503233537 80 115 1.0 8.0 0.00 0.00 0.00 38 1021.7
20260503233042 80 123 3.0 10.0 0.00 0.00 0.00 39 1021.8
20260503232537 81 172 2.0 11.0 0.00 0.00 0.00 38 1021.7
20260503232036 81 180 4.0 11.0 0.00 0.00 0.00 38 1021.8
20260503231544 81 94 2.0 7.0 0.00 0.00 0.00 37 1021.8
20260503231040 81 115 3.0 8.0 0.00 0.00 0.00 38 1021.9
20260503230537 81 75 2.0 8.0 0.00 0.00 0.00 36 1021.7
20260503230058 81 155 3.0 8.0 0.00 0.00 0.00 37 1021.7
20260503225536 81 153 3.0 8.0 0.00 0.00 0.00 36 1021.8
20260503225036 82 134 4.0 7.0 0.00 0.00 0.00 36 1021.9
20260503224546 82 143 2.0 8.0 0.00 0.00 0.00 37 1021.9
20260503224038 82 89 2.0 8.0 0.00 0.00 0.00 37 1021.9
20260503223536 82 0 1.0 6.0 0.00 0.00 0.00 36 1022.0
20260503223101 82 152 2.0 8.0 0.00 0.00 0.00 36 1022.1
20260503222539 81 128 1.0 8.0 0.00 0.00 0.00 36 1022.2
20260503222035 81 223 3.0 11.0 0.00 0.00 0.00 35 1022.3
20260503221550 82 186 4.0 11.0 0.00 0.00 0.00 36 1022.4
20260503221038 82 181 2.0 9.0 0.00 0.00 0.00 36 1022.4
20260503220537 82 195 3.0 8.0 0.00 0.00 0.00 36 1022.5
20260503220054 82 69 2.0 10.0 0.00 0.00 0.00 34 1022.6
20260503215536 83 164 2.0 10.0 0.00 0.00 0.00 34 1022.6
20260503215037 83 182 1.0 8.0 0.00 0.00 0.00 33 1022.8
20260503214552 83 144 0.0 9.0 0.00 0.00 0.00 35 1022.9
20260503214037 83 120 4.0 11.0 0.00 0.00 0.00 33 1022.9
20260503213536 83 88 2.0 12.0 0.00 0.00 0.00 34 1023.0
20260503213050 83 148 4.0 12.0 0.00 0.00 0.00 33 1023.2
20260503212536 83 152 3.0 8.0 0.00 0.00 0.00 35 1023.3
20260503212036 83 146 3.0 11.0 0.00 0.00 0.00 37 1023.2
20260503211550 83 179 1.0 12.0 0.00 0.00 0.00 35 1023.2
20260503211037 83 107 3.0 12.0 0.00 0.00 0.00 34 1023.6
20260503210536 83 130 4.0 9.0 0.00 0.00 0.00 36 1023.5
20260503210045 83 248 2.0 9.0 0.00 0.00 0.00 35 1023.7
20260503205536 84 178 0.0 6.0 0.00 0.00 0.00 34 1023.9
20260503205037 84 0 2.0 9.0 0.00 0.00 0.00 34 1024.0
20260503204550 84 100 2.0 9.0 0.00 0.00 0.00 34 1024.2
20260503204036 84 144 1.0 12.0 0.00 0.00 0.00 35 1024.1
20260503203536 83 49 3.0 12.0 0.00 0.00 0.00 35 1024.2
20260503203049 83 0 2.0 15.0 0.00 0.00 0.00 35 1024.5
20260503202537 84 173 4.0 15.0 0.00 0.00 0.00 35 1024.5
20260503202036 84 126 6.0 12.0 0.00 0.00 0.00 36 1024.6
20260503201550 84 144 3.0 8.0 0.00 0.00 0.00 38 1024.6
20260503201036 83 0 2.0 9.0 0.00 0.00 0.00 35 1024.7
20260503200534 83 128 2.0 9.0 0.00 0.00 0.00 34 1024.8
20260503200048 83 124 4.0 11.0 0.00 0.00 0.00 35 1025.1
20260503195535 83 162 3.0 11.0 0.00 0.00 0.00 37 1025.0
20260503195035 83 143 1.0 12.0 0.00 0.00 0.00 39 1025.0
20260503194551 83 92 5.0 12.0 0.00 0.00 0.00 38 1025.1
20260503194035 83 144 4.0 11.0 0.00 0.00 0.00 38 1025.0
20260503193535 83 163 0.0 10.0 0.00 0.00 0.00 38 1025.0
20260503193050 82 0 2.0 10.0 0.00 0.00 0.00 38 1025.2
20260503192534 82 190 4.0 10.0 0.00 0.00 0.00 39 1025.4
20260503192034 82 0 3.0 10.0 0.00 0.00 0.00 39 1025.6
20260503191540 82 161 2.0 10.0 0.00 0.00 0.00 39 1025.5
20260503191034 83 157 1.0 7.0 0.00 0.00 0.00 37 1025.6
20260503190538 83 0 0.0 8.0 0.00 0.00 0.00 36 1025.6
20260503190044 83 57 2.0 8.0 0.00 0.00 0.00 40 1025.7
20260503185534 84 146 0.0 7.0 0.00 0.00 0.00 37 1025.7
20260503185035 84 103 2.0 7.0 0.00 0.00 0.00 37 1025.8
20260503184548 83 183 2.0 8.0 0.00 0.00 0.00 39 1025.9
20260503184035 83 98 2.0 8.0 0.00 0.00 0.00 39 1025.9
20260503183534 82 123 0.0 7.0 0.00 0.00 0.00 41 1025.9
20260503183052 82 210 0.0 7.0 0.00 0.00 0.00 40 1026.0
20260503182534 82 159 2.0 7.0 0.00 0.00 0.00 39 1026.0
20260503182034 82 164 1.0 8.0 0.00 0.00 0.00 38 1026.1
20260503181557 82 0 2.0 8.0 0.00 0.00 0.00 41 1026.2
20260503181038 81 138 2.0 10.0 0.00 0.00 0.00 41 1026.5
20260503180536 81 175 2.0 10.0 0.00 0.00 0.00 39 1026.6
20260503180053 81 0 1.0 9.0 0.00 0.00 0.00 41 1026.8
20260503175534 81 170 3.0 9.0 0.00 0.00 0.00 41 1026.8
20260503175034 81 165 3.0 7.0 0.00 0.00 0.00 42 1026.8
20260503174543 81 301 0.0 7.0 0.00 0.00 0.00 40 1026.9
20260503174034 81 71 2.0 7.0 0.00 0.00 0.00 39 1027.0
20260503173534 81 148 2.0 6.0 0.00 0.00 0.00 42 1027.2
20260503173051 80 84 0.0 8.0 0.00 0.00 0.00 45 1027.2
20260503172535 80 176 1.0 9.0 0.00 0.00 0.00 44 1027.3
20260503172033 79 142 3.0 9.0 0.00 0.00 0.00 46 1027.3
20260503171542 79 176 4.0 9.0 0.00 0.00 0.00 46 1027.4
20260503171035 78 193 3.0 9.0 0.00 0.00 0.00 46 1027.4
20260503170534 78 167 1.0 10.0 0.00 0.00 0.00 46 1027.3
20260503150535 76 175 1.0 5.0 0.00 0.00 0.00 53 1027.7
20260503131034 59 0 0.0 0.0 0.00 0.00 0.00 92 1026.8
20260503130535 57 0 0.0 0.0 0.00 0.00 0.00 92 1026.8
20260503110535 54 0 0.0 0.0 0.00 0.00 0.00 89 1025.8
20260503081550 55 0 0.0 0.0 0.00 0.00 0.00 87 1025.4
20260503081042 55 0 0.0 0.0 0.00 0.00 0.00 87 1025.4
20260503080541 55 0 0.0 0.0 0.00 0.00 0.00 87 1025.6
20260503072534 56 0 0.0 0.0 0.00 0.00 0.00 87 1025.9
20260503072034 56 0 0.0 0.0 0.00 0.00 0.00 87 1026.0
20260503071544 56 0 0.0 0.0 0.00 0.00 0.00 87 1026.0
20260503071034 56 0 0.0 0.0 0.00 0.00 0.00 86 1025.8
20260503070537 56 0 0.0 0.0 0.00 0.00 0.00 86 1026.0
20260503055034 57 0 0.0 0.0 0.00 0.00 0.00 85 1025.9
20260503054543 57 0 0.0 0.0 0.00 0.00 0.00 85 1025.8
20260503054034 57 0 0.0 0.0 0.00 0.00 0.00 85 1025.8
20260503053535 57 0 0.0 0.0 0.00 0.00 0.00 85 1025.8
20260503053051 57 0 0.0 0.0 0.00 0.00 0.00 84 1025.8
20260503052536 57 0 0.0 0.0 0.00 0.00 0.00 84 1025.8
20260503052035 57 0 0.0 0.0 0.00 0.00 0.00 83 1025.7
20260503051541 57 0 0.0 0.0 0.00 0.00 0.00 82 1025.8
20260503051034 58 0 0.0 0.0 0.00 0.00 0.00 83 1025.7
20260503050535 58 0 0.0 0.0 0.00 0.00 0.00 83 1025.8
20260503050040 58 0 0.0 0.0 0.00 0.00 0.00 83 1025.4